Regional Weather Roundup
Issued by NWS

Home | Current Version | Previous Version | Text Only | Print | Product List | Glossary Off
Versions: 1 2 3 4 5 6 7 8 9 10 11 12 13 14 15 16 17 18 19 20 21 22 23 24 25 26 27 28 29 30 31 32 33 34 35 36 37 38 39 40 41 42 43 44 45 46 47 48 49 50

936
ASUS43 KTOP 291608
RWRKS

WEATHER ROUNDUP FOR KANSAS
NATIONAL WEATHER SERVICE GOODLAND KS
1100 AM CDT THU SEP 29 2016

NOTE:  "FAIR" INDICATES FEW OR NO CLOUDS BELOW 12,000 FEET WITH NO
SIGNIFICANT WEATHER AND/OR OBSTRUCTIONS TO VISIBILITY.

KSZ001>006-013>018-027>032-041>047-291700-
NORTHWEST KANSAS

CITY           SKY/WX    TMP DP  RH WIND       PRES   REMARKS
GOODLAND       LGT RAIN  62  43  49 S16       30.42S
HAYS           SUNNY     61  41  48 E5        30.46R
HILL CITY      SUNNY     59  47  64 VRB5      30.46F
RUSSELL        SUNNY     60  48  64 CALM      30.45R
$$

KSZ061>065-074>080-084>089-291700-
SOUTHWEST KANSAS

CITY           SKY/WX    TMP DP  RH WIND       PRES   REMARKS
DODGE CITY     SUNNY     62  44  51 VRB3      30.45S
ELKHART          N/A     64  43  46 S8          N/A
GARDEN CITY    SUNNY     62  43  49 SE9       30.44S
GREAT BEND     SUNNY     59  43  55 CALM      30.45S
LIBERAL        SUNNY     63  43  48 S6        30.46S
PRATT          SUNNY     58  43  57 N5        30.45S
$$

KSZ066>073-081>083-090>101-291700-
SOUTHEAST KANSAS

CITY           SKY/WX    TMP DP  RH WIND       PRES   REMARKS
CHANUTE        SUNNY     64  52  64 N7        30.38S
COFFEYVILLE    SUNNY     65  52  62 N9        30.38R
HUTCHINSON     SUNNY     62  49  62 NE6       30.45R
MEDICINE LODGE   N/A     63  46  54 NE6       30.43S
NEWTON         SUNNY     61  50  67 N9        30.43S
PARSONS        SUNNY     64  53  67 N9        30.39R
WICHITA INTL   MOSUNNY   62  49  62 N5        30.43R
WICHITA JABRA  SUNNY     63  52  67 N8        30.42S
WICHITA MCCONL SUNNY     62  50  65 NE8       30.42S
WINFIELD       SUNNY     63  51  65 N9        30.42S
$$

KSZ007>012-019>026-033>040-048>060-102>105-291700-
NORTHEAST KANSAS

CITY           SKY/WX    TMP DP  RH WIND       PRES   REMARKS
CONCORDIA      SUNNY     60  51  72 VRB3      30.46R
EMPORIA        SUNNY     62  52  69 N9        30.41S
LAWRENCE       SUNNY     64  53  67 NW9       30.40S
MANHATTAN      SUNNY     62  51  67 NE5       30.43S
MARYSVILLE     SUNNY     61  52  72 N3        30.44S
OLATHE IND     SUNNY     61  52  72 N13       30.40R
OLATHE EXE     SUNNY     61  49  64 N12       30.38R
SALINA         SUNNY     61  50  67 N5        30.46R
TOPEKA BILLARD SUNNY     62  52  69 N7        30.41S
TOPEKA FORBES  SUNNY     64  51  62 N9        30.41S
$$




USA.gov is the U.S. government's official web portal to all federal, state and local government web resources and services.